Wind_Speed
29 29 28 28 29 29 29 29 29 30 29 28 28 28 28 28 27 27 27 28 27 26 26 25 25 26 26 26 25 25 26 26 26 26 26 26 26 26 26 27 27 27 27
30 30 29 29 29 29 29 29 30 30 30 30 29 29 28 28 29 29 28 28 29 28 27 26 26 26 27 27 27 27 27 28 28 28 28 28 27 28 28 28 28 29 29
32 31 31 30 30 29 30 30 31 31 31 31 31 30 30 30 30 29 29 29 29 29 28 28 28 28 29 28 28 28 28 28 29 29 29 29 29 29 29 30 30 31 31
34 33 33 32 31 31 30 31 31 31 31 31 31 32 31 31 31 31 31 31 30 29 29 29 29 30 30 30 30 30 30 31 31 31 31 31 31 31 31 32 32 32 32
35 35 34 33 33 32 32 31 32 32 32 31 31 31 32 32 32 32 32 32 31 31 31 31 31 31 32 32 32 32 32 32 32 33 33 33 33 33 33 33 33 33 34
37 36 35 35 35 34 34 33 32 33 33 33 32 32 32 32 32 32 32 32 32 33 32 32 32 32 33 33 34 34 34 34 34 34 34 34 34 34 34 34 35 35 36
37 37 37 37 36 36 36 36 35 34 34 34 34 34 34 33 33 33 33 33 33 33 33 33 33 34 34 34 34 34 35 35 35 35 35 35 35 36 36 36 37 37 37
38 38 38 38 38 38 38 37 37 36 36 35 35 35 35 35 35 34 34 34 34 34 34 34 35 34 34 34 34 34 35 35 35 35 35 36 36 37 37 37 38 38 38
39 39 39 39 39 38 38 38 37 37 37 37 37 36 36 36 36 36 36 36 36 36 36 36 36 35 35 35 35 35 36 36 36 36 36 36 37 38 39 39 38 39 39
40 41 40 40 40 40 39 39 38 38 38 38 38 37 37 37 38 37 37 36 36 37 37 37 37 37 37 37 37 37 37 38 38 38 38 37 38 38 39 39 40 41 41
42 42 41 41 41 41 40 40 40 39 39 39 39 39 38 38 38 38 38 38 38 38 38 38 38 38 38 38 39 39 39 39 39 39 38 39 39 40 40 40 41 42 43
43 43 43 43 42 41 40 41 41 41 40 41 40 40 40 39 39 39 38 38 39 39 38 38 38 39 39 39 39 39 39 39 40 41 41 40 41 42 43 43 43 43 44
44 44 44 44 44 42 41 42 42 42 41 41 41 41 41 41 40 40 40 39 39 39 39 39 40 40 40 40 40 41 40 41 41 41 41 42 42 43 43 43 43 43 42
46 45 45 45 44 42 42 42 42 42 42 42 42 42 42 42 42 41 42 42 41 41 40 41 41 41 41 42 42 42 42 42 42 43 43 43 43 44 44 45 44 43 43
47 46 47 45 44 44 43 43 43 42 42 42 42 42 43 43 43 43 44 44 43 42 42 42 43 43 42 43 42 42 43 43 43 44 44 44 43 44 45 45 45 44 44
48 47 47 46 45 44 44 45 44 43 43 43 44 44 44 45 45 44 44 44 45 44 44 43 43 43 44 43 42 43 43 43 43 43 43 43 43 44 45 45 45 46 46
48 47 45 45 45 45 45 46 45 45 45 45 46 46 44 45 45 45 45 45 45 45 44 44 43 43 43 43 43 44 43 43 43 43 43 43 44 45 46 46 47 48 48
47 46 47 45 45 45 46 46 45 46 46 45 46 46 46 47 46 46 46 46 45 45 45 43 42 42 43 43 44 44 43 43 44 44 44 44 45 45 46 47 47 48 49
46 46 46 46 46 46 46 46 46 46 46 46 46 46 47 46 46 46 46 46 45 45 45 44 43 43 44 44 44 43 43 43 44 44 44 45 45 46 47 48 48 48 48
46 46 45 46 46 46 46 46 46 46 46 46 46 45 45 46 46 45 45 45 45 45 45 45 45 44 44 44 44 44 44 44 45 45 45 46 46 47 47 49 49 49 48
46 45 45 44 45 45 45 46 46 46 45 45 45 45 44 45 46 45 45 44 45 45 46 46 46 45 45 44 45 45 44 45 45 46 45 46 46 46 47 48 48 48 48
44 44 44 43 43 44 45 45 46 46 45 45 45 45 44 44 44 44 44 44 44 44 44 45 45 45 45 45 45 44 44 45 46 46 45 45 46 46 46 47 47 47 48
44 44 43 43 43 44 45 45 45 45 45 45 45 45 45 44 44 44 44 44 44 44 45 45 45 44 45 45 45 45 45 46 46 46 46 45 45 45 45 46 47 48 48
44 44 44 43 43 43 44 44 45 45 44 44 44 44 44 44 45 45 44 44 45 45 45 45 45 44 44 45 45 45 46 46 46 46 46 45 44 43 44 44 46 47 47
44 43 44 44 44 44 44 44 44 44 43 43 43 43 44 44 45 45 45 45 45 45 45 45 45 45 45 45 46 46 46 46 46 45 45 45 44 44 43 44 44 45 46
42 43 43 43 43 43 43 43 43 43 43 43 42 43 44 45 45 45 45 45 44 44 44 45 44 44 44 45 45 46 45 44 44 44 43 44 44 45 44 44 44 45 46
Wind_Direction
251 250 250 250 250 250 250 251 252 252 252 254 255 254 253 252 252 253 253 253 254 255 256 256 257 257 257 258 260 261 262 263 264 266 266 265 266 267 267 267 268 269 271
251 250 250 250 250 250 250 251 253 252 251 252 254 255 254 254 252 252 253 254 254 255 256 256 258 259 259 260 261 262 263 264 265 266 267 267 267 268 268 268 268 269 270
251 250 250 250 250 252 252 252 253 252 252 252 253 254 254 254 253 252 253 255 255 255 256 257 259 260 261 262 262 263 264 265 266 267 268 268 269 268 268 269 269 270 270
252 250 249 249 250 251 252 253 252 252 253 253 253 253 254 254 254 254 254 255 256 257 257 258 260 262 263 264 265 265 266 267 267 268 270 270 270 270 269 270 270 270 271
251 250 249 249 249 251 252 254 252 251 252 253 253 254 255 255 256 256 256 256 256 258 259 260 261 262 263 264 265 267 267 268 269 270 271 271 271 270 270 271 272 272 272
251 250 250 250 250 251 252 252 253 253 252 253 253 253 255 255 256 257 258 258 257 257 259 261 261 262 263 263 265 267 268 268 269 270 271 271 272 271 270 271 272 273 274
252 251 251 251 251 252 252 253 254 254 254 253 253 253 254 255 256 257 257 258 258 258 259 260 261 262 263 264 265 266 268 269 270 270 271 273 274 273 272 272 273 273 274
252 251 250 251 251 252 253 254 254 254 255 254 254 254 253 254 256 258 258 258 259 259 260 261 262 263 264 264 266 267 268 269 270 271 273 274 274 274 274 274 273 273 273
251 251 251 251 252 253 252 253 255 254 254 254 253 253 253 253 255 257 258 258 259 260 261 263 264 263 264 264 265 267 269 269 270 272 274 274 273 273 274 274 274 274 274
251 251 251 252 252 253 252 253 255 255 254 253 253 253 254 254 255 257 258 259 260 261 262 263 263 263 264 265 266 267 268 269 271 272 274 274 274 274 274 275 274 274 274
251 251 250 252 253 253 253 254 254 255 254 253 253 254 254 255 256 258 259 260 261 262 263 263 263 264 266 267 267 267 269 269 269 271 272 273 274 276 276 278 277 275 275
251 251 251 251 253 253 253 254 254 255 255 254 254 254 255 256 258 259 261 262 262 262 263 264 264 265 267 268 268 268 268 269 270 272 272 273 274 275 276 278 278 276 276
251 251 251 252 253 253 253 253 253 255 255 254 255 255 255 257 258 259 261 262 263 263 264 264 265 266 266 267 268 268 268 270 271 272 273 273 273 273 275 276 277 277 277
250 251 251 251 251 251 252 253 254 255 255 255 255 256 257 257 258 260 261 262 262 263 264 264 265 265 266 267 267 268 268 270 271 272 272 273 273 273 274 275 276 277 276
248 250 250 251 251 252 252 253 254 255 255 255 255 256 257 258 258 260 262 262 263 264 264 265 265 265 265 267 267 268 269 270 271 272 273 273 272 273 274 275 275 276 276
249 250 250 250 251 252 252 253 253 254 255 256 256 257 258 258 259 260 262 263 264 266 266 266 265 265 265 266 267 268 270 270 271 272 273 273 273 275 275 275 275 276 276
249 249 250 251 251 251 251 253 254 254 255 256 257 258 259 259 260 261 263 265 266 266 267 266 265 265 266 266 267 268 269 269 269 270 271 272 273 274 274 275 275 276 277
250 250 251 252 252 252 252 253 254 255 256 257 259 259 259 260 261 263 266 267 266 266 266 265 265 266 266 267 268 269 269 269 269 270 271 273 274 274 274 276 276 277 277
250 251 252 253 253 253 254 254 255 256 257 258 260 261 262 263 263 265 266 266 266 265 265 265 266 267 267 267 267 268 269 270 270 271 272 273 274 274 275 276 276 276 277
251 251 252 254 254 254 254 254 255 257 257 257 259 260 261 262 264 264 265 265 265 266 266 266 266 268 268 267 267 268 269 270 271 271 272 273 274 275 275 275 275 275 276
251 252 253 253 254 254 254 255 255 256 256 256 257 258 260 261 262 263 264 265 265 266 266 266 267 268 268 267 268 269 269 270 271 273 273 274 275 275 276 276 275 276 277
251 252 252 253 254 254 254 255 255 255 256 257 258 259 259 261 263 263 264 264 265 266 266 267 267 267 267 267 269 269 270 271 273 273 275 275 276 276 276 276 276 276 277
251 252 252 253 254 254 254 255 255 256 257 257 257 258 259 261 263 264 264 264 265 266 267 267 267 266 265 267 269 270 270 272 274 275 276 276 276 277 277 276 276 277 277
250 250 251 253 254 255 255 256 256 257 258 258 258 258 260 261 262 263 264 265 265 266 267 267 266 265 265 267 269 270 271 272 273 274 275 276 276 277 277 277 277 277 277
250 250 251 253 254 255 255 256 256 257 258 259 258 259 260 261 263 264 265 265 266 267 267 268 266 266 267 268 270 271 272 273 274 274 274 275 275 277 277 277 277 277 277
250 251 252 253 254 255 256 257 257 257 258 259 259 259 260 261 262 264 264 265 266 266 267 267 267 268 268 270 271 272 273 274 275 274 275 276 277 278 278 277 276 276 276
Height
5794 5796 5797 5799 5801 5802 5804 5806 5808 5809 5811 5812 5814 5815 5817 5819 5820 5822 5824 5825 5827 5829 5830 5832 5833 5834 5836 5837 5838 5839 5840 5841 5841 5842 5842 5843 5843 5843 5844 5844 5844 5844 5844
5787 5789 5791 5793 5794 5796 5798 5799 5801 5803 5804 5806 5808 5809 5811 5813 5814 5816 5818 5819 5821 5823 5825 5826 5828 5829 5830 5831 5832 5833 5834 5835 5836 5836 5837 5837 5838 5838 5838 5838 5838 5838 5838
5779 5782 5784 5786 5788 5789 5791 5793 5794 5796 5798 5799 5801 5803 5804 5806 5808 5810 5812 5813 5815 5817 5819 5820 5822 5823 5824 5825 5826 5827 5828 5829 5830 5830 5831 5831 5832 5832 5832 5832 5832 5832 5832
5772 5774 5776 5779 5781 5782 5784 5786 5788 5789 5791 5792 5794 5796 5798 5799 5801 5803 5805 5807 5809 5810 5812 5814 5816 5817 5818 5819 5820 5821 5822 5823 5823 5824 5824 5825 5825 5825 5825 5825 5825 5825 5825
5763 5766 5768 5771 5773 5775 5777 5779 5780 5782 5784 5785 5787 5789 5791 5793 5794 5796 5798 5800 5802 5804 5805 5807 5809 5810 5811 5812 5813 5814 5815 5816 5816 5817 5817 5817 5818 5818 5818 5818 5818 5818 5818
5755 5757 5760 5762 5764 5767 5769 5771 5773 5774 5776 5778 5780 5782 5784 5785 5787 5789 5791 5793 5795 5796 5798 5800 5801 5802 5804 5805 5806 5807 5807 5808 5809 5809 5809 5810 5810 5810 5811 5811 5810 5810 5810
5745 5748 5751 5753 5756 5758 5760 5762 5764 5766 5768 5770 5772 5774 5776 5778 5780 5782 5784 5785 5787 5789 5791 5792 5794 5795 5796 5797 5798 5799 5800 5800 5800 5801 5801 5801 5802 5802 5802 5802 5802 5802 5801
5736 5738 5741 5744 5747 5749 5752 5754 5756 5758 5760 5762 5764 5766 5769 5771 5773 5774 5776 5778 5780 5781 5783 5784 5786 5787 5788 5789 5790 5791 5792 5792 5792 5793 5793 5793 5793 5793 5793 5793 5793 5793 5792
5726 5729 5731 5734 5736 5739 5741 5744 5746 5749 5751 5753 5755 5758 5761 5763 5765 5767 5768 5770 5771 5773 5775 5776 5777 5779 5780 5781 5782 5783 5783 5784 5784 5784 5784 5784 5784 5784 5784 5784 5784 5783 5783
5716 5719 5721 5724 5727 5729 5732 5734 5737 5739 5742 5744 5746 5749 5752 5754 5757 5758 5760 5761 5763 5764 5766 5767 5768 5770 5771 5772 5773 5774 5774 5774 5774 5775 5775 5775 5774 5774 5774 5774 5774 5773 5773
5706 5708 5711 5714 5717 5719 5722 5725 5727 5730 5732 5735 5737 5740 5742 5745 5747 5749 5751 5753 5754 5755 5756 5758 5759 5760 5762 5762 5763 5764 5764 5764 5765 5765 5765 5765 5764 5764 5764 5764 5763 5763 5762
5695 5698 5701 5704 5706 5709 5712 5715 5718 5720 5723 5725 5728 5730 5732 5735 5737 5739 5741 5743 5744 5746 5747 5748 5749 5750 5751 5752 5753 5753 5754 5754 5754 5755 5755 5755 5754 5754 5754 5753 5753 5752 5751
5684 5687 5690 5693 5696 5699 5702 5705 5708 5710 5712 5715 5718 5720 5722 5725 5727 5729 5731 5732 5734 5736 5737 5738 5739 5740 5741 5741 5742 5743 5743 5744 5744 5744 5744 5744 5744 5743 5743 5742 5742 5741 5740
5673 5676 5679 5682 5685 5688 5691 5694 5697 5700 5702 5705 5707 5710 5712 5714 5716 5718 5720 5722 5724 5725 5726 5728 5729 5729 5730 5730 5731 5731 5732 5733 5733 5733 5733 5733 5733 5732 5732 5731 5731 5730 5729
5660 5664 5667 5671 5674 5677 5680 5683 5686 5689 5691 5694 5697 5699 5701 5703 5706 5707 5709 5710 5712 5714 5716 5717 5718 5718 5718 5719 5719 5720 5720 5721 5721 5721 5721 5721 5721 5720 5720 5719 5719 5719 5718
5648 5652 5655 5659 5662 5665 5669 5672 5675 5677 5680 5683 5685 5688 5690 5692 5694 5696 5697 5699 5700 5701 5703 5705 5706 5706 5707 5707 5708 5708 5709 5709 5709 5709 5709 5709 5709 5708 5708 5707 5707 5707 5706
5636 5640 5643 5647 5650 5654 5657 5660 5663 5666 5669 5671 5674 5676 5679 5681 5682 5684 5685 5687 5688 5689 5690 5693 5693 5694 5695 5695 5696 5697 5697 5697 5698 5697 5697 5697 5697 5696 5696 5695 5695 5694 5693
5624 5628 5631 5635 5638 5642 5645 5648 5652 5654 5657 5659 5662 5664 5666 5668 5670 5672 5673 5674 5675 5676 5678 5680 5681 5682 5683 5684 5684 5685 5685 5685 5686 5686 5686 5685 5685 5684 5683 5683 5682 5681 5680
5613 5616 5619 5623 5626 5630 5633 5636 5639 5642 5645 5647 5650 5652 5654 5656 5657 5659 5660 5661 5663 5664 5665 5667 5669 5670 5671 5671 5672 5673 5673 5673 5673 5674 5673 5673 5672 5671 5671 5670 5669 5668 5667
5601 5605 5608 5611 5614 5617 5621 5624 5627 5630 5632 5635 5637 5639 5641 5643 5645 5646 5648 5649 5650 5652 5653 5654 5656 5657 5658 5659 5659 5660 5661 5661 5661 5661 5661 5660 5659 5659 5658 5657 5656 5655 5654
5589 5593 5596 5599 5602 5605 5608 5611 5614 5617 5620 5622 5625 5627 5629 5631 5632 5634 5635 5637 5638 5639 5640 5642 5643 5644 5645 5646 5647 5647 5648 5648 5649 5648 5648 5647 5647 5646 5645 5644 5642 5642 5641
5578 5581 5584 5587 5590 5593 5596 5598 5601 5605 5608 5610 5612 5614 5616 5618 5620 5621 5623 5624 5625 5627 5628 5629 5631 5632 5633 5633 5634 5634 5635 5636 5636 5637 5635 5635 5633 5633 5631 5630 5629 5628 5627
5566 5570 5573 5576 5579 5581 5584 5586 5589 5592 5595 5597 5599 5601 5603 5605 5607 5609 5610 5611 5613 5614 5615 5617 5618 5619 5620 5621 5621 5622 5622 5622 5622 5622 5622 5622 5620 5619 5618 5617 5615 5614 5614
5555 5558 5561 5564 5567 5569 5572 5574 5576 5579 5582 5584 5586 5589 5591 5593 5594 5596 5597 5599 5600 5601 5602 5603 5605 5606 5606 5607 5608 5608 5608 5608 5609 5609 5608 5608 5607 5606 5605 5603 5602 5601 5600
5543 5547 5550 5553 5555 5558 5560 5562 5564 5567 5570 5572 5574 5576 5578 5580 5581 5583 5585 5586 5588 5588 5589 5590 5591 5592 5593 5594 5594 5594 5595 5595 5595 5595 5594 5594 5594 5593 5592 5591 5589 5588 5587
5532 5535 5538 5541 5543 5546 5548 5550 5552 5555 5558 5560 5562 5564 5565 5567 5568 5570 5572 5573 5575 5576 5576 5577 5578 5580 5580 5581 5581 5581 5581 5581 5581 5582 5581 5580 5580 5579 5579 5579 5577 5575 5574